User: anonymous   Login
Location: Unspecified
(0.0000°N, 0.0000°E)
Time: 11:17:25
(UTC+00:00)
Language:

Vela 2A - Orbit

View from above orbital plane
View from above orbital plane
View from above satellite
View from above satellite

Ground track
Ground track

The orbit data is extracted from the following two-line orbital elements,

1 00836U 64040A   14296.74818932  .00000417  00000-0  00000+0 0  5374
2 00836 082.2057 325.5859 3308735 261.4867 000.5435 00.23921967 43916
Epoch (UTC): 23 October 2014 17:57:23
Eccentricity: 0.3308735
inclination: 82.2057°
perigee height: 66967 km
apogee height: 139504 km
right ascension of ascending node: 325.5859°
argument of perigee: 261.4867°
revolutions per day: 0.23921967
mean anomaly at epoch: 0.5435°
orbit number at epoch: 4391

The dashed part of the orbit path shows where the satellite is in the earth's shadow,  

DLR